STARLINK-4453 (53497 NORAD) Tracking and Keplerian Element Data

This shows tracking and keplerian element data for the satellite.

Feedback or suggestion? Click here.




ElementValue
Catalog53497
NameSTARLINK-4453
Epoch Orbit1522
Epoch Day324.8694153
Epoch Year2022
RAAN83.9386
Inclination97.6557
Eccentricity0.0003403
Argument of Perigee20.2991
Mean Anonmoly339.8368
Mean Motion15.01223855
Decay Rate6.21E-05
L11 53497U 22099AJ 22324.86941530 .00006210 00000+0 48806-3 0 9996
L22 53497 97.6557 83.9386 0003403 20.2991 339.8368 15.01223855 15221



Live tracking and technical data element details for STARLINK-4453 (NORAD 53497). STARLINK-4453 can be tracked NOW for your location showing map with azimuth and elevation plus other details from your city location.







IsCatalogInMostPopularTable: catalog: 53497, numindb: 3
Update: records affected: 1



GetName: 53497 STARLINK-4453

Hit Count: updated at: Thu, 08 Dec 2022 19:32:51 GMT